Regional Weather Roundup
Issued by NWS Little Rock, AR

Home | Current Version | Previous Version | Text Only | Print | Product List | Glossary Off
Versions: 1 2 3 4 5 6 7 8 9 10 11 12 13 14 15 16 17 18 19 20 21 22 23 24 25 26 27

000
ASUS44 KLZK 182205
RWRLZK

WEATHER ROUNDUP FOR ARKANSAS
NATIONAL WEATHER SERVICE LITTLE ROCK AR
500 PM CDT FRI APR 18 2014

NOTE: "FAIR" INDICATES FEW OR NO CLOUDS BELOW 12,000 FEET WITH NO
SIGNIFICANT WEATHER AND/OR OBSTRUCTIONS TO VISIBILITY.

ARZ001-003-010-029-182300-
NORTHWEST ARKANSAS

CITY           SKY/WX    TMP DP  RH WIND       PRES   REMARKS
FAYETTEVILLE   SUNNY     73  42  32 NE5       30.15F
FORT SMITH     SUNNY     77  35  21 VRB3      30.14F
HARRISON       MOSUNNY   71  38  29 VRB6      30.18F
BENTONVILLE    SUNNY     72  39  30 SW5       30.18F
ROGERS         SUNNY     71  38  29 NE5       30.17F
SILOAM SPGS    SUNNY     72  41  33 E6        30.17F
HIGHFILL       SUNNY     71  39  31 VRB5      30.16F
SPRINGDALE     SUNNY     72  39  30 CALM      30.17F
$$

ARZ004-005-016-182300-
NORTH CENTRAL ARKANSAS

CITY           SKY/WX    TMP DP  RH WIND       PRES   REMARKS
BATESVILLE     SUNNY     73  43  33 E8        30.16F
FLIPPIN        PTSUNNY   73  39  29 E7        30.17F
MTN HOME       MOSUNNY   74  36  25 E8        30.16F
$$

ARZ040-041-182300-
WEST CENTRAL ARKANSAS

CITY           SKY/WX    TMP DP  RH WIND       PRES   REMARKS
MENA           MOSUNNY   73  36  25 CALM      30.14F
MOUNT IDA      SUNNY     73  44  35 VRB5      30.13F
$$

ARZ009-017-025-026-028-182300-
NORTHEAST ARKANSAS

CITY           SKY/WX    TMP DP  RH WIND       PRES   REMARKS
CORNING        FAIR      73  41  31 NE9       30.18F
JONESBORO      SUNNY     73  45  36 NE10      30.17F
NEWPORT        MOSUNNY   72  46  39 E9        30.18F
WALNUT RIDGE   SUNNY     72  46  40 E10       30.18F
BLYTHEVILLE    SUNNY     72  47  40 NE8       30.17F
$$

ARZ022-023-033-042-044-182300-
CENTRAL ARKANSAS

CITY           SKY/WX    TMP DP  RH WIND       PRES   REMARKS
LITTLE ROCK    MOSUNNY   74  43  32 E10       30.16F
N LITTLE ROCK  MOSUNNY   74  46  37 E8        30.16F
JACKSONVILLE   SUNNY     73  46  37 E7        30.16S
SEARCY         SUNNY     72  46  39 E7        30.17F
HOT SPRINGS    MOSUNNY   74  41  30 VRB5      30.15F
RUSSELLVILLE   SUNNY     74  45  35 VRB6      30.15F
CLINTON        FAIR      72  45  37 SE3       30.16S
$$

ARZ036-182300-
EAST ARKANSAS

CITY           SKY/WX    TMP DP  RH WIND       PRES   REMARKS
WEST MEMPHIS   CLOUDY    71  52  50 NE12      30.14F
$$

ARZ050-053-066-070-073-182300-
SOUTHWEST ARKANSAS

CITY           SKY/WX    TMP DP  RH WIND       PRES   REMARKS
ARKADELPHIA    FAIR      73  49  42 E6        30.15F
CAMDEN         CLOUDY    72  46  40 MISG      30.14F
TEXARKANA      MOSUNNY   73  48  41 VRB5      30.13F
EL DORADO      CLOUDY    71  52  50 NE6       30.14F
DE QUEEN       MOSUNNY   75  42  30 E5        30.10F
$$

ARZ056-057-069-182300-
SOUTHEAST ARKANSAS

CITY           SKY/WX    TMP DP  RH WIND       PRES   REMARKS
PINE BLUFF     SUNNY     72  48  42 NE9G18    30.15F
STUTTGART      CLOUDY    72  46  40 NE7       30.16F
MONTICELLO     PTSUNNY   73  48  41 E8        30.13F

$$





USA.gov is the U.S. government's official web portal to all federal, state and local government web resources and services.